When you browse on this site, cookies collect data to enhance your experience and personalize the content and advertising you see.
Visit our Privacy Policy to learn more. By continuing to use the site, you agree to this use of cookies and data.
  • In Hungary
  • List of Countries
  • For 7 days
  • Water Temperature
  • Satellite Maps
  • Weather Map
  • News
  • Weather Widgets
  • user-avatar
    Login

    Hourly Weather Tulchin

    Today, 18 January, Friday

    Time Temperature Precipitation Wind Pressure Humidity
    00:00 -4°C° 0 mm 3 mps 736 mmHg 90%
    01:00 -4°C° 0 mm 3 mps 736 mmHg 89%
    02:00 -4°C° 0 mm 2 mps 736 mmHg 88%
    03:00 -4°C° 0 mm 2 mps 736 mmHg 87%
    04:00 -4°C° 0 mm 3 mps 736 mmHg 87%
    05:00 -4°C° 0 mm 3 mps 736 mmHg 87%
    06:00 -2°C° 0 mm 3 mps 736 mmHg 87%
    07:00 -1°C° 0 mm 3 mps 736 mmHg 87%
    08:00 -2°C° 0 mm 3 mps 736 mmHg 87%
    09:00 -1°C° 0 mm 3 mps 736 mmHg 88%
    10:00 -1°C° 0 mm 4 mps 736 mmHg 89%
    11:00 -1°C° 0 mm 4 mps 736 mmHg 90%
    12:00 -1°C° 0 mm 4 mps 736 mmHg 92%
    13:00 -1°C° 0 mm 4 mps 736 mmHg 94%
    14:00 +1°C° 0 mm 3 mps 736 mmHg 96%
    15:00 0°C° 0 mm 3 mps 736 mmHg 95%
    16:00 0°C° 0 mm 3 mps 736 mmHg 93%
    17:00 +1°C° 0 mm 2 mps 737 mmHg 91%
    18:00 0°C° 0.3 mm 3 mps 737 mmHg 94%
    19:00 0°C° 0.3 mm 3 mps 737 mmHg 96%
    20:00 0°C° 0.3 mm 3 mps 738 mmHg 98%
    21:00 0°C° 0.2 mm 3 mps 738 mmHg 96%
    22:00 0°C° 0.2 mm 3 mps 739 mmHg 94%
    23:00 -1°C° 0.2 mm 4 mps 739 mmHg 92%

    Tomorrow, 19 January, Saturday

    Time Temperature Precipitation Wind Pressure Humidity
    00:00 -2°C° 0.1 mm 4 mps 740 mmHg 92%
    01:00 -2°C° 0.1 mm 4 mps 740 mmHg 92%
    02:00 -3°C° 0.1 mm 4 mps 741 mmHg 92%
    03:00 -4°C° 0 mm 4 mps 741 mmHg 92%
    04:00 -5°C° 0 mm 4 mps 742 mmHg 93%
    05:00 -5°C° 0 mm 4 mps 742 mmHg 93%
    06:00 -7°C° 0 mm 3 mps 743 mmHg 93%
    07:00 -8°C° 0 mm 3 mps 743 mmHg 93%
    08:00 -10°C° 0 mm 3 mps 744 mmHg 93%
    09:00 -9°C° 0 mm 3 mps 744 mmHg 92%
    10:00 -8°C° 0 mm 3 mps 745 mmHg 91%
    11:00 -7°C° 0 mm 3 mps 745 mmHg 91%
    12:00 -6°C° 0 mm 2 mps 745 mmHg 91%
    13:00 -5°C° 0 mm 2 mps 745 mmHg 91%
    14:00 -5°C° 0 mm 2 mps 746 mmHg 91%
    15:00 -6°C° 0 mm 2 mps 746 mmHg 91%
    16:00 -7°C° 0 mm 1 mps 746 mmHg 91%
    17:00 -8°C° 0 mm 1 mps 746 mmHg 90%
    18:00 -9°C° 0 mm 1 mps 746 mmHg 90%
    19:00 -9°C° 0 mm 1 mps 746 mmHg 90%
    20:00 -10°C° 0 mm 0 mps 746 mmHg 89%
    21:00 -10°C° 0 mm 0 mps 746 mmHg 88%
    22:00 -10°C° 0 mm 0 mps 746 mmHg 88%
    23:00 -10°C° 0 mm 0 mps 747 mmHg 87%

    Day after tomorrow, 20 January, Sunday

    Time Temperature Precipitation Wind Pressure Humidity
    00:00 -10°C° 0 mm 1 mps 747 mmHg 86%
    01:00 -10°C° 0 mm 1 mps 746 mmHg 86%
    02:00 -10°C° 0 mm 1 mps 746 mmHg 85%
    03:00 -12°C° 0 mm 2 mps 746 mmHg 86%
    04:00 -12°C° 0 mm 2 mps 746 mmHg 87%
    05:00 -12°C° 0 mm 2 mps 745 mmHg 87%
    06:00 -12°C° 0 mm 3 mps 745 mmHg 88%
    07:00 -10°C° 0 mm 3 mps 745 mmHg 89%
    08:00 -9°C° 0 mm 3 mps 745 mmHg 89%
    09:00 -9°C° 0 mm 4 mps 745 mmHg 89%
    10:00 -9°C° 0 mm 4 mps 745 mmHg 89%
    11:00 -8°C° 0 mm 4 mps 745 mmHg 89%
    12:00 -8°C° 0.1 mm 4 mps 744 mmHg 89%
    13:00 -7°C° 0.1 mm 4 mps 743 mmHg 90%
    14:00 -7°C° 0.1 mm 4 mps 743 mmHg 91%
    15:00 -7°C° 0.1 mm 4 mps 742 mmHg 92%
    16:00 -6°C° 0.1 mm 3 mps 742 mmHg 94%
    17:00 -6°C° 0.1 mm 3 mps 742 mmHg 95%
    18:00 -5°C° 0.3 mm 3 mps 741 mmHg 95%
    19:00 -5°C° 0.3 mm 3 mps 741 mmHg 96%
    20:00 -5°C° 0.3 mm 3 mps 741 mmHg 96%
    21:00 -4°C° 0.7 mm 2 mps 741 mmHg 97%
    22:00 -4°C° 0.7 mm 2 mps 741 mmHg 97%
    23:00 -4°C° 0.7 mm 2 mps 741 mmHg 98%

    21 January, Monday

    Time Temperature Precipitation Wind Pressure Humidity
    00:00 -4°C° 0.4 mm 2 mps 741 mmHg 98%
    01:00 -4°C° 0.4 mm 2 mps 741 mmHg 98%
    02:00 -4°C° 0.4 mm 2 mps 740 mmHg 97%
    03:00 -5°C° 0.3 mm 3 mps 740 mmHg 97%
    04:00 -6°C° 0.3 mm 3 mps 740 mmHg 96%
    05:00 -7°C° 0.3 mm 4 mps 740 mmHg 96%
    06:00 -7°C° 0.1 mm 4 mps 741 mmHg 95%
    07:00 -7°C° 0.1 mm 4 mps 741 mmHg 95%
    08:00 -8°C° 0.1 mm 4 mps 742 mmHg 94%
    09:00 -8°C° 0 mm 4 mps 742 mmHg 93%
    10:00 -8°C° 0 mm 4 mps 743 mmHg 92%
    11:00 -9°C° 0 mm 4 mps 743 mmHg 90%
    12:00 -8°C° 0 mm 4 mps 743 mmHg 91%
    13:00 -8°C° 0 mm 4 mps 743 mmHg 92%
    14:00 -8°C° 0 mm 4 mps 744 mmHg 93%
    15:00 -8°C° 0 mm 4 mps 744 mmHg 93%
    16:00 -8°C° 0 mm 4 mps 744 mmHg 92%
    17:00 -9°C° 0 mm 4 mps 745 mmHg 92%
    18:00 -9°C° 0 mm 3 mps 745 mmHg 92%
    19:00 -10°C° 0 mm 3 mps 745 mmHg 92%
    20:00 -12°C° 0 mm 2 mps 746 mmHg 93%
    21:00 -13°C° 0 mm 2 mps 746 mmHg 93%
    22:00 -12°C° 0 mm 1 mps 746 mmHg 94%
    23:00 -13°C° 0 mm 1 mps 746 mmHg 95%

    22 January, Tuesday

    Time Temperature Precipitation Wind Pressure Humidity
    00:00 -14°C° 0 mm 1 mps 746 mmHg 96%
    01:00 -14°C° 0 mm 0 mps 746 mmHg 97%
    02:00 -15°C° 0 mm 0 mps 746 mmHg 97%
    03:00 -15°C° 0 mm 0 mps 746 mmHg 97%
    04:00 -15°C° 0 mm 1 mps 746 mmHg 96%
    05:00 -15°C° 0 mm 1 mps 745 mmHg 95%
    06:00 -15°C° 0 mm 1 mps 745 mmHg 95%
    07:00 -15°C° 0 mm 1 mps 745 mmHg 95%
    08:00 -17°C° 0 mm 2 mps 745 mmHg 94%
    09:00 -16°C° 0 mm 2 mps 745 mmHg 93%
    10:00 -14°C° 0 mm 2 mps 745 mmHg 93%
    11:00 -14°C° 0 mm 3 mps 745 mmHg 92%
    12:00 -13°C° 0 mm 3 mps 744 mmHg 91%
    13:00 -12°C° 0 mm 3 mps 744 mmHg 91%
    14:00 -10°C° 0 mm 2 mps 743 mmHg 91%
    15:00 -13°C° 0 mm 3 mps 743 mmHg 92%
    16:00 -14°C° 0 mm 3 mps 742 mmHg 93%
    17:00 -15°C° 0 mm 3 mps 742 mmHg 94%
    18:00 -15°C° 0 mm 3 mps 742 mmHg 95%
    19:00 -15°C° 0 mm 3 mps 741 mmHg 96%
    20:00 -16°C° 0 mm 3 mps 741 mmHg 96%
    21:00 -15°C° 0 mm 3 mps 741 mmHg 97%
    22:00 -15°C° 0 mm 3 mps 741 mmHg 97%
    23:00 -14°C° 0 mm 3 mps 740 mmHg 97%

    23 January, Wednesday

    Time Temperature Precipitation Wind Pressure Humidity
    00:00 -13°C° 0.1 mm 3 mps 740 mmHg 97%
    01:00 -12°C° 0.1 mm 4 mps 740 mmHg 96%
    02:00 -11°C° 0.1 mm 4 mps 739 mmHg 96%
    03:00 -10°C° 0.1 mm 4 mps 739 mmHg 96%
    04:00 -11°C° 0.1 mm 5 mps 738 mmHg 96%
    05:00 -11°C° 0.1 mm 5 mps 738 mmHg 96%
    06:00 -10°C° 0.2 mm 5 mps 737 mmHg 95%
    07:00 -10°C° 0.2 mm 6 mps 737 mmHg 95%
    08:00 -9°C° 0.2 mm 6 mps 737 mmHg 95%
    09:00 -9°C° 0.2 mm 6 mps 737 mmHg 95%
    10:00 -8°C° 0.2 mm 7 mps 737 mmHg 95%
    11:00 -8°C° 0.2 mm 7 mps 737 mmHg 94%
    12:00 -7°C° 0.1 mm 7 mps 736 mmHg 94%
    13:00 -7°C° 0.1 mm 7 mps 736 mmHg 95%
    14:00 -6°C° 0.1 mm 7 mps 735 mmHg 95%
    15:00 -6°C° 0 mm 7 mps 735 mmHg 94%
    16:00 -6°C° 0 mm 7 mps 734 mmHg 94%
    17:00 -6°C° 0 mm 7 mps 734 mmHg 93%
    18:00 -6°C° 0.5 mm 8 mps 734 mmHg 93%
    19:00 -6°C° 0.5 mm 8 mps 734 mmHg 94%
    20:00 -6°C° 0.5 mm 8 mps 733 mmHg 94%
    21:00 -6°C° 0.2 mm 8 mps 733 mmHg 93%
    22:00 -6°C° 0.2 mm 8 mps 733 mmHg 93%
    23:00 -6°C° 0.2 mm 8 mps 732 mmHg 92%
    Show more